This demonstration page uses our WeatherBlox Daily Observations layout. Learn more.

Hourly Observations for October 23, 2020

Temp ( °F °C ) Dew Point ( °F °C ) Humidity (%) Winds ( mph kmh ) Pressure ( in mb ) Visibility ( mi km ) Precip ( " mm )
12:54 am 00:54 Cloudy 36 2.2 31 -0.6 82 82 N 23 37 30.17 1022 10 16.0934 0 0
1:26 am 01:26 Cloudy 36 2.2 31 -0.6 82 82 N 20 31 30.25 1024 10 16.0934 0 0
1:54 am 01:54 Cloudy 36 2.2 31 -0.6 82 82 N 22 35 30.23 1024 10 16.0934 0 0
2:54 am 02:54 Cloudy 35 1.7 31 -0.6 85 85 N 20 31 30.23 1024 8 12.87472 0 0
3:54 am 03:54 Cloudy 36 2.2 30 -1.1 79 79 N 29 46 30.22 1024 10 16.0934 0 0
4:54 am 04:54 Cloudy 36 2.2 30 -1.1 79 79 NNW 22 35 30.26 1025 10 16.0934 0 0
5:54 am 05:54 Cloudy 36 2.2 30 -1.1 79 79 NNW 28 44 30.29 1026 10 16.0934 0 0
6:54 am 06:54 Cloudy 36 2.2 30 -1.1 79 79 N 23 37 30.31 1026 10 16.0934 0 0
7:14 am 07:14 Cloudy 36 2.2 29 -1.7 76 76 N 21 33 30.34 1027 10 16.0934 0 0
7:54 am 07:54 Cloudy 36 2.2 28 -2.2 73 73 N 23 37 30.34 1027 10 16.0934 0 0
8:54 am 08:54 Cloudy 36 2.2 29 -1.7 76 76 N 23 37 30.37 1029 10 16.0934 0 0
9:54 am 09:54 Cloudy 37 2.8 28 -2.2 70 70 N 32 52 30.4 1029 10 16.0934 0 0
10:06 am 10:06 Cloudy 37 2.8 28 -2.2 70 70 N 29 46 30.42 1030 10 16.0934 0 0
10:54 am 10:54 Cloudy 38 3.3 28 -2.2 68 68 N 25 41 30.42 1030 10 16.0934 0 0
11:54 am 11:54 Cloudy 38 3.3 27 -2.8 65 65 N 24 39 30.45 1031 10 16.0934 0 0
12:54 pm 12:54 Cloudy 39 3.9 27 -2.8 62 62 N 20 31 30.45 1031 10 16.0934 0 0
1:54 pm 13:54 Cloudy 37 2.8 26 -3.3 65 65 NNW 22 35 30.47 1032 10 16.0934 0 0
2:54 pm 14:54 Cloudy 37 2.8 25 -3.9 62 62 NNW 21 33 30.46 1032 10 16.0934 0 0
3:54 pm 15:54 Cloudy 37 2.8 25 -3.9 62 62 N 18 30 30.46 1032 10 16.0934 0 0
4:54 pm 16:54 Cloudy 37 2.8 24 -4.4 59 59 N 20 31 30.46 1031 10 16.0934 0 0
5:54 pm 17:54 Cloudy 36 2.2 23 -5 59 59 N 16 26 30.45 1031 10 16.0934 0 0
6:54 pm 18:54 Cloudy 35 1.7 22 -5.6 59 59 N 20 31 30.45 1031 10 16.0934 0 0
7:37 pm 19:37 Cloudy 34 1.1 23 -5 64 64 N 15 24 30.48 1032 10 16.0934 0 0
7:54 pm 19:54 Cloudy 34 1.1 22 -5.6 61 61 N 16 26 30.47 1032 10 16.0934 0 0
8:54 pm 20:54 Cloudy 34 1.1 23 -5 64 64 N 9 15 30.46 1032 10 16.0934 0 0
9:54 pm 21:54 Cloudy 34 1.1 23 -5 64 64 NNE 10 17 30.47 1032 10 16.0934 0 0
10:40 pm 22:40 Partly Cloudy 30 -1.1 22 -5.6 72 72 NNE 7 11 30.5 1033 10 16.0934 0 0
10:54 pm 22:54 Clear 30 -1.1 21 -6.1 69 69 NE 5 7 30.46 1032 10 16.0934 0 0
11:54 pm 23:54 Mostly Clear 27 -2.8 21 -6.1 78 78 N 3 6 30.46 1031 10 16.0934 0 0

Powered by AerisWeather